Time,TemperatureF,DewpointF,PressureIn,WindDirection,WindDirectionDegrees,WindSpeedMPH,WindSpeedGustMPH,Humidity,HourlyPrecipIn,Conditions,Clouds,dailyrainin,SolarRadiationWatts/m^2,SoftwareType,DateUTC
2013-03-10 00:01:00,46.0,36.0,-100.00,ESE,121,3.0,9.0,68,0.00,,,-99.99,1.000000,,2013-03-10 07:01:00,
2013-03-10 00:32:00,45.0,37.0,-100.00,WSW,250,1.0,5.0,72,0.00,,,0.03,1.000000,,2013-03-10 07:32:00,
2013-03-10 00:42:00,45.0,37.0,-100.00,WSW,250,1.0,5.0,72,0.00,,,0.03,1.000000,,2013-03-10 07:42:00,
2013-03-10 00:52:00,45.0,37.0,-100.00,WSW,250,1.0,5.0,72,0.00,,,0.03,1.000000,,2013-03-10 07:52:00,
2013-03-10 01:01:00,45.0,37.0,-100.00,WSW,250,1.0,5.0,72,0.00,,,0.03,1.000000,,2013-03-10 08:01:00,
2013-03-10 01:32:00,45.0,37.0,-100.00,SW,226,2.0,3.0,73,0.00,,,0.03,1.000000,,2013-03-10 08:32:00,
2013-03-10 01:42:00,45.0,37.0,-100.00,SW,226,2.0,3.0,73,0.00,,,0.03,1.000000,,2013-03-10 08:42:00,
2013-03-10 01:51:00,45.0,37.0,-100.00,SW,226,2.0,3.0,73,0.00,,,0.03,1.000000,,2013-03-10 08:51:00,
2013-03-10 02:01:00,45.0,37.0,-100.00,SW,226,2.0,3.0,73,0.00,,,0.03,1.000000,,2013-03-10 09:01:00,
2013-03-10 02:32:00,45.0,38.0,-100.00,WSW,255,1.0,4.0,75,0.00,,,0.03,1.000000,,2013-03-10 09:32:00,
2013-03-10 02:42:00,45.0,38.0,-100.00,WSW,255,1.0,4.0,75,0.00,,,0.03,1.000000,,2013-03-10 09:42:00,
2013-03-10 02:51:00,45.0,38.0,-100.00,WSW,255,1.0,4.0,75,0.00,,,0.03,1.000000,,2013-03-10 09:51:00,
2013-03-10 03:01:00,45.0,38.0,-100.00,WSW,255,1.0,4.0,75,0.00,,,0.03,1.000000,,2013-03-10 10:01:00,
2013-03-10 03:32:00,43.0,36.0,-100.00,NW,307,1.0,4.0,75,0.00,,,0.03,1.000000,,2013-03-10 10:32:00,
2013-03-10 03:42:00,43.0,36.0,-100.00,NW,307,1.0,4.0,75,0.00,,,0.03,1.000000,,2013-03-10 10:42:00,
2013-03-10 03:52:00,43.0,36.0,-100.00,NW,307,1.0,4.0,75,0.00,,,0.03,1.000000,,2013-03-10 10:52:00,
2013-03-10 04:01:00,43.0,36.0,-100.00,NW,307,1.0,4.0,75,0.00,,,0.03,1.000000,,2013-03-10 11:01:00,
2013-03-10 07:32:00,41.0,36.0,-100.00,NNE,29,3.0,5.0,81,-99.99,,,0.00,6.000000,,2013-03-10 14:32:00,
2013-03-10 07:42:00,41.0,36.0,-100.00,NNE,29,3.0,5.0,81,-99.99,,,0.00,6.000000,,2013-03-10 14:42:00,
2013-03-10 07:52:00,41.0,36.0,-100.00,NNE,29,3.0,5.0,81,-99.99,,,0.00,6.000000,,2013-03-10 14:52:00,
2013-03-10 08:01:00,41.0,36.0,-100.00,NNE,29,3.0,5.0,81,-99.99,,,0.00,6.000000,,2013-03-10 15:01:00,
2013-03-10 08:32:00,51.0,40.0,-100.00,SW,235,1.0,5.0,66,0.00,,,0.00,151.000000,,2013-03-10 15:32:00,
2013-03-10 08:42:00,51.0,40.0,-100.00,SW,235,1.0,5.0,66,0.00,,,0.00,151.000000,,2013-03-10 15:42:00,
2013-03-10 08:52:00,51.0,40.0,-100.00,SW,235,1.0,5.0,66,0.00,,,0.00,151.000000,,2013-03-10 15:52:00,
2013-03-10 09:01:00,51.0,40.0,-100.00,SW,235,1.0,5.0,66,0.00,,,0.00,151.000000,,2013-03-10 16:01:00,
2013-03-10 09:32:00,54.0,37.0,-100.00,SSW,197,4.0,6.0,52,0.00,,,-99.99,372.000000,,2013-03-10 16:32:00,
2013-03-10 09:42:00,54.0,37.0,-100.00,SSW,197,4.0,6.0,52,0.00,,,-99.99,372.000000,,2013-03-10 16:42:00,
2013-03-10 09:52:00,54.0,37.0,-100.00,SSW,197,4.0,6.0,52,0.00,,,-99.99,372.000000,,2013-03-10 16:52:00,
2013-03-10 10:01:00,54.0,37.0,-100.00,SSW,197,4.0,6.0,52,0.00,,,-99.99,372.000000,,2013-03-10 17:01:00,
2013-03-10 12:32:00,61.0,34.0,-100.00,WNW,289,5.0,10.0,36,-99.99,,,0.00,849.000000,,2013-03-10 19:32:00,
2013-03-10 12:42:00,61.0,34.0,-100.00,WNW,289,5.0,10.0,36,-99.99,,,0.00,849.000000,,2013-03-10 19:42:00,
2013-03-10 12:53:00,61.0,34.0,-100.00,WNW,289,5.0,10.0,36,-99.99,,,0.00,849.000000,,2013-03-10 19:53:00,
2013-03-10 13:01:00,61.0,34.0,-100.00,WNW,289,5.0,10.0,36,-99.99,,,0.00,849.000000,,2013-03-10 20:01:00,
2013-03-10 13:32:00,66.0,34.0,-100.00,South,185,4.0,11.0,31,0.00,,,0.00,909.000000,,2013-03-10 20:32:00,
2013-03-10 13:43:00,66.0,34.0,-100.00,South,185,4.0,11.0,31,0.00,,,0.00,909.000000,,2013-03-10 20:43:00,
2013-03-10 13:53:00,66.0,34.0,-100.00,South,185,4.0,11.0,31,0.00,,,0.00,909.000000,,2013-03-10 20:53:00,
2013-03-10 14:02:00,66.0,34.0,-100.00,South,185,4.0,11.0,31,0.00,,,0.00,909.000000,,2013-03-10 21:02:00,
2013-03-10 14:33:00,65.0,32.0,-100.00,WSW,248,6.0,15.0,29,0.00,,,0.00,875.000000,,2013-03-10 21:33:00,
2013-03-10 14:43:00,65.0,32.0,-100.00,WSW,248,6.0,15.0,29,0.00,,,0.00,875.000000,,2013-03-10 21:43:00,
2013-03-10 14:52:00,65.0,32.0,-100.00,WSW,248,6.0,15.0,29,0.00,,,0.00,875.000000,,2013-03-10 21:52:00,
2013-03-10 15:02:00,65.0,32.0,-100.00,WSW,248,6.0,15.0,29,0.00,,,0.00,875.000000,,2013-03-10 22:02:00,
2013-03-10 15:32:00,67.0,31.0,-100.00,SSW,210,7.0,12.0,26,0.00,,,0.00,783.000000,,2013-03-10 22:32:00,
2013-03-10 15:43:00,67.0,31.0,-100.00,SSW,210,7.0,12.0,26,0.00,,,0.00,783.000000,,2013-03-10 22:43:00,
2013-03-10 15:53:00,67.0,31.0,-100.00,SSW,210,7.0,12.0,26,0.00,,,0.00,783.000000,,2013-03-10 22:53:00,
2013-03-10 16:02:00,67.0,31.0,-100.00,SSW,210,7.0,12.0,26,0.00,,,0.00,783.000000,,2013-03-10 23:02:00,
2013-03-10 16:33:00,67.0,27.0,-100.00,SSE,160,5.0,16.0,22,0.00,,,0.00,592.000000,,2013-03-10 23:33:00,
2013-03-10 16:43:00,67.0,27.0,-100.00,SSE,160,5.0,16.0,22,0.00,,,0.00,592.000000,,2013-03-10 23:43:00,
2013-03-10 16:52:00,67.0,27.0,-100.00,SSE,160,5.0,16.0,22,0.00,,,0.00,592.000000,,2013-03-10 23:52:00,
2013-03-10 17:02:00,67.0,27.0,-100.00,SSE,160,5.0,16.0,22,0.00,,,0.00,592.000000,,2013-03-11 00:02:00,
2013-03-10 17:33:00,66.0,27.0,-100.00,SE,143,6.0,11.0,23,0.00,,,-99.99,377.000000,,2013-03-11 00:33:00,
2013-03-10 17:43:00,66.0,27.0,-100.00,SE,143,6.0,11.0,23,0.00,,,-99.99,377.000000,,2013-03-11 00:43:00,
2013-03-10 17:53:00,66.0,27.0,-100.00,SE,143,6.0,11.0,23,0.00,,,-99.99,377.000000,,2013-03-11 00:53:00,
2013-03-10 18:02:00,66.0,27.0,-100.00,SE,143,6.0,11.0,23,0.00,,,-99.99,377.000000,,2013-03-11 01:02:00,
2013-03-10 18:33:00,63.0,21.0,-100.00,NE,54,7.0,10.0,20,0.00,,,0.00,153.000000,,2013-03-11 01:33:00,
2013-03-10 18:43:00,63.0,21.0,-100.00,NE,54,7.0,10.0,20,0.00,,,0.00,153.000000,,2013-03-11 01:43:00,
2013-03-10 18:53:00,63.0,21.0,-100.00,NE,54,7.0,10.0,20,0.00,,,0.00,153.000000,,2013-03-11 01:53:00,
2013-03-10 19:02:00,63.0,21.0,-100.00,NE,54,7.0,10.0,20,0.00,,,0.00,153.000000,,2013-03-11 02:02:00,
2013-03-10 19:32:00,59.0,24.0,-100.00,NNE,25,6.0,11.0,26,0.00,,,0.00,5.000000,,2013-03-11 02:32:00,
2013-03-10 19:42:00,59.0,24.0,-100.00,NNE,25,6.0,11.0,26,0.00,,,0.00,5.000000,,2013-03-11 02:42:00,
2013-03-10 19:52:00,59.0,24.0,-100.00,NNE,25,6.0,11.0,26,0.00,,,0.00,5.000000,,2013-03-11 02:52:00,
2013-03-10 20:02:00,59.0,24.0,-100.00,NNE,25,6.0,11.0,26,0.00,,,0.00,5.000000,,2013-03-11 03:02:00,
2013-03-10 20:32:00,54.0,23.0,-100.00,NE,50,3.0,11.0,30,0.00,,,0.00,1.000000,,2013-03-11 03:32:00,
2013-03-10 20:43:00,54.0,23.0,-100.00,NE,50,3.0,11.0,30,0.00,,,0.00,1.000000,,2013-03-11 03:43:00,
2013-03-10 20:52:00,54.0,23.0,-100.00,NE,50,3.0,11.0,30,0.00,,,0.00,1.000000,,2013-03-11 03:52:00,
2013-03-10 21:02:00,54.0,23.0,-100.00,NE,50,3.0,11.0,30,0.00,,,0.00,1.000000,,2013-03-11 04:02:00,
2013-03-10 21:33:00,51.0,30.0,-100.00,North,350,4.0,5.0,44,0.00,,,0.00,1.000000,,2013-03-11 04:33:00,
2013-03-10 21:43:00,51.0,30.0,-100.00,North,350,4.0,5.0,44,0.00,,,0.00,1.000000,,2013-03-11 04:43:00,
2013-03-10 21:53:00,51.0,30.0,-100.00,North,350,4.0,5.0,44,0.00,,,0.00,1.000000,,2013-03-11 04:53:00,
2013-03-10 22:02:00,51.0,30.0,-100.00,North,350,4.0,5.0,44,0.00,,,0.00,1.000000,,2013-03-11 05:02:00,
2013-03-10 22:32:00,48.0,28.0,-100.00,NNE,19,3.0,5.0,46,0.00,,,0.00,1.000000,,2013-03-11 05:32:00,
2013-03-10 22:43:00,48.0,28.0,-100.00,NNE,19,3.0,5.0,46,0.00,,,0.00,1.000000,,2013-03-11 05:43:00,
2013-03-10 22:52:00,48.0,28.0,-100.00,NNE,19,3.0,5.0,46,0.00,,,0.00,1.000000,,2013-03-11 05:52:00,
2013-03-10 23:02:00,48.0,28.0,-100.00,NNE,19,3.0,5.0,46,0.00,,,0.00,1.000000,,2013-03-11 06:02:00,
2013-03-10 23:33:00,50.0,28.0,-100.00,North,8,4.0,8.0,42,0.00,,,0.00,1.000000,,2013-03-11 06:33:00,
2013-03-10 23:42:00,50.0,28.0,-100.00,North,8,4.0,8.0,42,0.00,,,0.00,1.000000,,2013-03-11 06:42:00,
2013-03-10 23:53:00,50.0,28.0,-100.00,North,8,4.0,8.0,42,0.00,,,0.00,1.000000,,2013-03-11 06:53:00,